Regional Weather Roundup
Issued by NWS Wakefield, VA

Home | Current Version | Previous Version | Text Only | Print | Product List | Glossary On
Versions: 1 2 3 4 5 6 7 8 9 10 11 12 13 14 15 16 17 18 19 20 21 22 23 24 25 26 27
000
ASUS41 KAKQ 240615
RWRAKQ

REGIONAL WEATHER ROUNDUP
NATIONAL WEATHER SERVICE WAKEFIELD VA
200 AM EDT MON JUL 24 2017

Note: "fair" indicates few or no clouds below 12,000 feet with no
significant weather and/or obstructions to visibility. * = Denotes
station may not report precipitation (e.g., rain,snow,etc.),
thunder or fog.

VAZ042-051-052>054-056-240700-
NORTHERN VIRGINIA

CITY           SKY/WX    TMP DP  RH WIND       PRES   REMARKS
WASH NATIONAL  MOCLDY    74  72  93 N5        29.76S
DULLES         CLOUDY    73  72  96 CALM      29.75S
FORT BELVOIR   CLOUDY    79  71  77 S7G20     29.75S
QUANTICO       LGT RAIN  80  71  74 SW14G24   29.75F
FREDERICKSBRG* PTCLDY    78  70  77 MISG      29.76F
STAFFORD*      CLOUDY    77  72  84 SW6G17    29.80F
WARRENTON      CLOUDY    79  69  70 SW9G16    29.76S
CULPEPER*      CLOUDY    79  72  79 SW8       29.77R
MANASSAS*      PTCLDY    74  72  93 S3        29.76R
LEESBURG*      CLOUDY    73  73 100 CALM      29.77R
WINCHESTER     CLOUDY    70  70 100 CALM      29.76S
FRONT ROYAL*   CLOUDY    75  68  78 CALM      29.76S
LURAY*         MOCLDY    73  68  83 SW3       29.79R
$$

VAZ048-049-060>072-079>083-240700-
CENTRAL AND SOUTH CENTRAL VIRGINIA

CITY           SKY/WX    TMP DP  RH WIND       PRES   REMARKS
RICHMOND       CLOUDY    76  75  97 S3        29.80F
CHESTERFIELD*  LGT RAIN  76  73  91 S6        29.82F
PETERSBURG*    CLOUDY    73  68  84 CALM      29.82F
HANOVER        LGT RAIN  74  70  87 SW6       29.79F
TAPPAHANNOCK*  LGT RAIN  74  74 100 CALM      29.79F
QUINTON*       FAIR      74  74 100 CALM      29.79F
CHARLOTTSVILLE MOCLDY    80  69  69 SW8       29.79S
GORDONSVILLE*  PTCLDY    78  69  74 SW16      29.78F
ORANGE*        MOCLDY    77  70  78 SW12G17   29.79R
LOUISA*        PTCLDY    75  68  78 SW6       29.79F
BUMPASS*       MOCLDY    73  72  97 SW7       29.79F
FARMVILLE*     LGT RAIN  74  69  86 SW7       29.80F
CREWE*         FAIR      78  64  61 W6        29.83S
FORT PICKETT*  FAIR     N/A N/A N/A S13       29.84R
CHASE CITY*    FAIR      75  69  79 CALM      29.86R
CLARKSVILLE*   FAIR      72  70  94 CALM      29.87R
SOUTH HILL*    PTCLDY    73  69  90 S5        29.91S
LAWRENCEVILLE* FAIR      73  70  91 S5        29.86R
EMPORIA*         N/A     70  68  94 SW3       29.86R
$$

VAZ088>098-240700-
SOUTHEAST VIRGINIA

CITY           SKY/WX    TMP DP  RH WIND       PRES   REMARKS
NORFOLK        CLOUDY    74  71  91 SW15G21   29.81R
VIRGINIA BEACH CLOUDY    72  68  87 SW9       29.80R
NORFOLK NAVAL  CLOUDY    77  69  76 SW8       29.82R
WEST POINT*    CLOUDY    76  72  89 W6        29.80F
SALUDA*        FAIR      77  71  80 W3        29.77F
NEWPORT NEWS   CLOUDY    77  68  73 W14       29.80
LANGLEY AFB    CLOUDY    77  70  77 SW18      29.79R
FORT EUSTIS    MOCLDY    76  69  79 W7        29.79R
WILLIAMSBURG*  CLOUDY    79  70  73 W6        29.81F
HR EXEC AP*    FAIR      72  66  83 SW7       29.80R
FRANKLIN*      CLOUDY    72  68  88 SW6       29.84R
US460-WAKEFLD  MOCLDY    73  69  87 SW8       29.83S
$$

VAZ020-022-025-037-045-240700-
WEST CENTRAL AND SOUTHWEST VIRGINIA

CITY           SKY/WX    TMP DP  RH WIND       PRES   REMARKS
STAUNTON*      CLOUDY    75  64  69 SW9       29.85R
WAYNESBORO*    MOCLDY    75  68  77 SW13G21   29.86R
HOT SPRINGS VA CLOUDY    64  63  94 SW14      30.01S
LYNCHBURG      TSTM      70  69  97 W3        29.88S
DANVILLE       MOCLDY    74  69  85 W12       29.86R
SOUTH BOSTON*  FAIR      72  69  92 CALM      29.87R
MARTINSVILLE   LGT RAIN  71  67  88 W3        29.90F
ROANOKE        LGT RAIN  70  69  97 W8        29.92F
BLACKSBURG     LGT RAIN  69  67  94 CALM      29.99F
DUBLIN*        DRIZZLE   71  66  85 S6        29.98F
MARION*        CLOUDY    68  64  88 NW3       30.01F
HILLSVILLE*    LGT RAIN  67  63  87 CALM      29.99F
RICHLANDS*     MOCLDY    67  65  92 CALM      29.99F
WISE*          CLOUDY    68  68 100 W7        30.01S
ABINGDON*      CLOUDY    70  70 100 CALM      29.98S
$$

MDZ021>025-VAZ099-100-240700-
SOUTHERN MARYLAND AND THE DELMARVA PENINSULA

CITY           SKY/WX    TMP DP  RH WIND       PRES   REMARKS
PATUXENT RIVER PTCLDY    79  72  79 SW16G26   29.75S
BAY BRIDGE APT NOT AVBL
LEONARDTOWN    CLOUDY    77  70  78 SW14G26   29.77S
DOVER          CLEAR     77  77 100 SE3       29.73R
GEORGETOWN     CLOUDY    77  73  87 S3        29.75F
EASTON         CLOUDY    79  75  88 SW6       29.79R
CAMBRIDGE      PTCLDY    81  75  83 SW5G14    29.74S
SALISBURY      NOT AVBL
OCEAN CITY     CLOUDY    78  74  87 W10       29.73F
WALLOPS ISLAND CLOUDY    80  71  74 W15G22    29.73F
ACCOMACK*      CLOUDY    80  71  74 W13G23    29.75S
$$

NCZ012>017-030>032-240700-
NORTH CENTRAL AND EASTERN NORTH CAROLINA

CITY           SKY/WX    TMP DP  RH WIND       PRES   REMARKS
ROANOKE RAPIDS FAIR      72  70  94 SW9       29.86R
RALEIGH        MOCLDY    72  70  93 SW8       29.86F
ELIZABETH CITY CLOUDY    74  74 100 W5        29.81R
AHOSKIE*         N/A     69  69  98 CALM      29.86R
EDENTON*       CLOUDY    76  71  85 SW7       29.82F
CURRITUCK*     CLOUDY   N/A N/A N/A SW8       29.81R
KILL DEVIL HLS CLOUDY    76  70  81 S6        29.80F
MANTEO         CLOUDY    76  71  84 SW16      29.82F
CAPE HATTERAS  CLOUDY    76  70  82 SW9       29.87F
TARBORO*       NOT AVBL
GOLDSBORO      CLOUDY    77  76  97 SW6       29.86F FOG
WASHINGTON     CLOUDY    73  71  91 S10       29.83F
GREENVILLE     MOCLDY    72  72 100 W5        29.89S
NEW BERN       CLOUDY    76  73  91 S6        29.88F
WILMINGTON     CLOUDY    80  76  87 SW10      29.88F
$$

VAZ048-240700-
ELSEWHERE

CITY           SKY/WX    TMP DP  RH WIND       PRES   REMARKS
HARRISBURG PA  LGT RAIN  73  72  96 S8        29.75S
BALTIMORE      CLOUDY    73  72  96 VRB3      29.75R
ANNAPOLIS      CLOUDY    74  73  97 CALM      29.74R
ANDREWS AFB    PTCLDY    73  71  94 SE5       29.76R
PHILADELPHIA   LGT RAIN  72  69  90 NE8       29.77F
HENDERSON NC   PTCLDY    69  65  88 SW6       29.88R
GREENSBORO     CLOUDY    72  71  97 W16       29.88R
ROCKY MOUNT    PTCLDY    72  72 100 S3        29.86F
$$

VAZ100-240700-
MARINE

STATION/POSITION TIME  TEMP    WIND        PRES    WAVE   SWELL
                       AIR SEA DIR/SP/G            HT/PER HT/PER
                 (UTC) (F)     (DEG/KT/KT) (MB)    (FT/S) (FT/S)
BRANDYWINE LGT   0548          100/  6/  7 1007.6F
CAPE MAY NJ      0548      73   90/  3/  3 1006.6F
LEWES DE         0548      74  150/  4/  5 1006.9F
15NM E FENWICK I 0550   77 74  200/  6/  8 1007.6F   3/ 7   3/ 7
OCEAN-CITY-INLET 0548      69  260/ 11/ 15 1007.1F
WACHAPREAGUE VA  0548      83  240/  5/ 15 1007.3F
THOMAS POINT MD  0600   77 82  290/  9/ 10   N/A
COVE POINT MD    0548          250/ 18/ 27 1007.7F
SOLOMONS ISLAND  0548      84  240/ 21/ 25   N/A
BISHOPS HEAD MD  0548      84  240/ 25/ 28 1007.2R
PINEY POINT MD   0542          270/ 23/ 29   N/A
CAMBRIDGE MD     0548      87              1008.0R
LEWISETTA VA     0548      86  280/ 18/ 24 1007.7S
RAPPAHANNOCK LGT 0548          250/ 23/ 27 1007.7F
YORK RVR RNG VA  0548          280/ 20/ 22 1008.2F
YORKTOWN VA      0548      83  250/ 16/ 19 1008.2F
DOMINION TERM VA 0548          260/ 11/ 15 1009.5R
KIPTOPEKE VA     0548      73  280/  8/ 14   N/A
CHES BAY BRIDGE  0548          210/ 12/ 19 1009.1R
CAPE HENRY VA    0548          230/ 10/ 18   N/A
WILLOUBY STN VA  0548          240/ 19/ 20 1008.9R
S CRANEY ISL VA  0548          220/  9/ 13 1009.5R
CAPE HENRY BUOY  0600      62                N/A     2/ 9
64NM E OF VA BCH 0550   78 79  210/ 16/ 17 1008.3F   5/ 5   2/ 8
DUCK PIER NC     0548      60  210/ 11/ 16 1008.6F
44100 DUCK FRF   0505      74                N/A     3/11
44056 DUCK FRF   0600      64                N/A     2/ 9
OREGON INLET NC  0542      84  210/ 15/ 17 1009.8F
HATTERAS NC      0548      78  210/  9/ 13 1011.2F
DIAMOND SHLS NC  0550   82 84  240/ 14/ 17 1011.7F   7/ 7   5/ 7
CAPE LOOKOUT NC  0600   81     220/ 11/ 13 1011.8F
$$




USA.gov is the U.S. government's official web portal to all federal, state and local government web resources and services.